Location: Newark
(40.9833°N, 0.0333°W)
Time: 08:35:18
(UTC+00:00)

Transit 4A - Pass Details

Date: 31 October 2020
Orbit: 862 x 982 km, 66.8° (Epoch: 28 November)

Event Time Altitude Azimuth Distance (km) Brightness Sun altitude
Rises 13:55:03 0° 197° (SSW) 3,567 12.1 26.9°
Reaches altitude 10° 13:57:34 10° 194° (SSW) 2,645 11.6 26.6°
Maximum altitude 14:03:39 62° 114° (ESE) 1,071 8.6 25.9°
Drops below altitude 10° 14:09:55 10° 36° (NE) 2,726 9.9 25.1°
Sets 14:12:32 0° 33° (NNE) 3,686 10.4 24.8°
